[[{"header":{"parameterUnit":"m.s-1","parameterCategory":1,"la1":30.2991,"la2":30.254,"lo1":-89.0895,"lo2":-89.0444,"dy":0.0017,"dx":0.0017,"nx":28,"ny":28,"refTime":"2024-07-07T09:00:00:Z","depth":0,"parameterNumber":2,"parameterNumberName":"U-component_of_WINDS"},"data":[0,0,0,0,0,0,0,0,0,0,0,0,0,0,0,0,0,0,0,0,0,0,0,0,0,0,0,0,0,0,0,0,0,0,0,0,0,0,0,0,0,0,0,0,0,0,0,0,0,0,0,0,0,0,0,0,0,0,1.3773,1.3775,0,1.3887,1.3888,1.3889,1.388,1.3879,1.3877,1.3875,1.4002,1.4006,1.4011,0,0,0,0,0,0,0,0,0,0,0,0,0,1.3559,1.3563,1.3773,1.3775,1.3776,1.3887,1.3888,1.389,1.3881,1.3879,1.3876,1.3874,1.4,1.4006,1.4012,0,0,0,0,0,0,0,0,0,0,0,0,0,1.3661,1.3564,1.3773,1.3785,1.3787,1.3886,1.3888,1.389,1.3881,1.3878,1.3876,1.3873,1.3998,1.4005,1.4013,1.4111,0,0,1.4035,1.4039,0,0,0,0,0,0,0,0,1.3655,1.3668,1.3782,1.3784,1.3787,1.3866,1.3859,1.3965,1.3882,1.3846,1.3875,1.3872,1.3959,1.397,1.3997,1.4117,1.4122,1.4036,1.4041,1.4044,1.4046,0,0,0,0,0,0,0,1.3648,1.3664,1.3819,1.3783,1.3786,1.3788,1.3799,1.3879,1.3916,1.3849,1.3848,1.3861,1.396,1.399,1.4,1.4124,1.4036,1.4042,1.4047,1.405,1.4333,1.4335,0,0,0,0,0,0,1.3637,1.3658,1.3815,1.3822,1.3713,1.3794,1.3806,1.3844,1.3915,1.3923,1.3863,1.386,1.3978,1.3991,1.4005,1.4125,1.4044,1.4051,1.4055,1.433,1.4333,1.4337,0,0,0,0,0,0,1.3632,1.3651,1.381,1.374,1.376,1.38,1.3842,1.3847,1.3877,1.3926,1.3934,1.3886,1.3977,1.3994,1.4084,1.4129,1.4054,1.4061,1.4326,1.4331,1.4335,1.4367,0,0,0,0,0,0,1.3626,1.3649,1.3684,1.374,1.3764,1.3885,1.3845,1.3851,1.3888,1.3886,1.3949,1.3958,1.3976,1.4073,1.4092,1.4138,1.4067,1.4322,1.4328,1.4333,1.4362,1.4372,1.438,0,0,0,0,0,1.3618,1.3691,1.3686,1.3705,1.3808,1.3887,1.3901,1.3918,1.3892,1.393,1.3962,1.3956,1.4121,1.4082,1.4103,1.4153,1.4319,1.4326,1.4333,1.4358,1.437,1.438,0,0,0,0,0,0,1.3642,1.3698,1.3694,1.3785,1.3831,1.3886,1.3933,1.393,1.3987,1.3983,1.4005,1.4019,1.411,1.4141,1.4096,1.4253,1.4218,1.4229,1.4229,1.4241,1.425,1.4241,1.4073,0,0,0,0,0,1.3657,1.3713,1.3761,1.3838,1.3861,1.3893,1.3928,1.3937,1.3987,1.4007,1.4046,1.4097,1.4161,1.4203,1.4265,1.4366,1.4382,1.4411,1.442,1.4428,1.4438,1.4496,1.451,1.4359,1.4359,1.4359,0,0,1.369,1.3728,1.3763,1.3843,1.388,1.3941,1.3909,1.3975,1.4022,1.4019,1.4105,1.4136,1.4195,1.4292,1.4336,1.432,1.4483,1.4436,1.4442,1.4448,1.4504,1.4518,1.4531,1.4363,1.4363,1.4362,0,0,1.3782,1.3815,1.3883,1.392,1.3975,1.3996,1.4012,1.4067,1.4086,1.4173,1.4172,1.423,1.4339,1.4381,1.4417,1.4527,1.4524,1.4547,1.4595,1.4651,1.4663,1.4674,1.4714,1.4728,1.4556,1.4556,1.4556,0,1.3817,1.3905,1.3919,1.3985,1.4022,1.4019,1.4089,1.4126,1.42,1.4227,1.4207,1.4344,1.4384,1.4491,1.4517,1.4546,1.4568,1.4539,1.466,1.4671,1.4681,1.472,1.4735,1.4559,1.4558,1.4558,1.4558,0,1.3947,1.4009,1.4057,1.4125,1.4168,1.4236,1.4263,1.4305,1.4311,1.4336,1.4426,1.4473,1.4545,1.4571,1.4579,1.4681,1.4669,1.4654,1.4619,1.4697,1.4734,1.4749,1.4562,1.4561,1.456,1.456,0,0,1.4055,1.4129,1.4147,1.4178,1.4239,1.4289,1.436,1.4426,1.4463,1.4514,1.4575,1.4668,1.4655,1.4696,1.4709,1.4758,1.4843,1.4738,1.474,1.4756,1.4961,1.4971,1.4988,1.4842,1.4845,1.4847,1.4956,0,1.4153,1.4272,1.4287,1.4395,1.4454,1.4453,1.4514,1.456,1.4586,1.4642,1.4672,1.4737,1.4714,1.4739,1.4788,1.4822,1.4885,1.4815,1.4902,1.4905,1.4886,1.5007,1.5018,1.5118,1.497,1.4973,1.4974,0,1.4283,1.4335,1.4447,1.4501,1.4527,1.4581,1.4644,1.4697,1.4751,1.4766,1.4812,1.4819,1.4895,1.4856,1.4963,1.4915,1.4952,1.4975,1.4979,1.4988,1.4944,1.502,1.515,1.5165,1.4997,1.4995,1.4994,0,1.4352,1.445,1.4531,1.4558,1.4622,1.4661,1.469,1.4741,1.4781,1.4837,1.4864,1.493,1.4967,1.502,1.5046,1.5015,1.5152,1.5115,1.5169,1.5168,1.5198,1.5196,1.5336,1.5221,1.5221,1.522,1.522,0,1.446,1.4529,1.4562,1.4612,1.469,1.4709,1.4788,1.4816,1.4862,1.4919,1.4924,1.4979,1.5009,1.507,1.5092,1.5178,1.5195,1.5211,1.5216,1.5211,1.5209,1.5236,1.523,1.5224,1.5224,1.5223,1.5222,0,1.4549,1.4574,1.4662,1.4715,1.4731,1.4787,1.4834,1.4884,1.4909,1.4982,1.5001,1.5042,1.5113,1.5144,1.5234,1.5248,1.5347,1.5347,1.5327,1.5329,1.5382,1.5377,1.5545,1.5569,1.5437,1.5438,1.5439,0,1.4616,1.4669,1.4728,1.4765,1.4795,1.4856,1.4896,1.4917,1.496,1.5025,1.5068,1.5139,1.5196,1.5312,1.5352,1.5421,1.5423,1.5477,1.5433,1.5426,1.5424,1.5421,1.5427,1.5485,1.5486,1.5487,1.5488,0,1.4733,1.4743,1.4799,1.4859,1.4906,1.4956,1.5005,1.5036,1.5066,1.5114,1.5185,1.523,1.532,1.5391,1.5462,1.5497,1.5499,1.5501,1.5518,1.5513,1.55,1.5509,1.535,1.5498,1.5497,1.5496,1.5495,1.5495,1.4815,1.4862,1.4911,1.4973,1.5012,1.5057,1.5107,1.5137,1.5196,1.5268,1.5279,1.5356,1.5411,1.5507,1.5544,1.5607,1.5594,1.5617,1.5623,1.5629,1.5632,1.5489,1.562,1.562,1.562,1.562,1.5619,0,1.4932,1.4964,1.5021,1.5087,1.5138,1.5132,1.5186,1.5229,1.5295,1.5345,1.5401,1.5485,1.5554,1.56,1.5671,1.5713,1.5716,1.5731,1.5728,1.5737,1.564,1.5618,1.5727,1.5727,1.5727,1.5727,1.5727,1.5727,1.4999,1.5079,1.5095,1.5196,1.5228,1.53,1.5332,1.5375,1.5415,1.5506,1.5563,1.5591,1.564,1.5715,1.578,1.5792,1.5818,1.5834,1.5846,1.5755,1.5743,1.5733,1.5713,1.584,1.584,1.5938,1.5939,1.5939]},{"header":{"parameterUnit":"m.s-1","parameterCategory":1,"la1":30.2991,"la2":30.254,"lo1":-89.0895,"lo2":-89.0444,"dy":0.0017,"dx":0.0017,"nx":28,"ny":28,"refTime":"2024-07-07T09:00:00:Z","depth":0,"parameterNumber":3,"parameterNumberName":"V-component_of_WINDS"},"data":[0,0,0,0,0,0,0,0,0,0,0,0,0,0,0,0,0,0,0,0,0,0,0,0,0,0,0,0,0,0,0,0,0,0,0,0,0,0,0,0,0,0,0,0,0,0,0,0,0,0,0,0,0,0,0,0,0,0,1.0744,1.0742,0,1.049,1.0487,1.0484,1.0326,1.0325,1.0324,1.0323,1.006,1.0054,1.0048,0,0,0,0,0,0,0,0,0,0,0,0,0,1.1093,1.1088,1.0745,1.0741,1.0738,1.0491,1.0487,1.0483,1.0326,1.0325,1.0324,1.0323,1.0062,1.0055,1.0047,0,0,0,0,0,0,0,0,0,0,0,0,0,1.0901,1.1086,1.0745,1.063,1.0617,1.0491,1.0487,1.0483,1.0326,1.0325,1.0323,1.0322,1.0064,1.0055,1.0046,1.0015,0,0,1.0018,1.0014,0,0,0,0,0,0,0,0,1.0912,1.0888,1.065,1.0637,1.0623,1.0438,1.0513,1.0326,1.0326,1.0436,1.0323,1.0321,1.0187,1.0167,1.0122,1.0002,0.9991,1.0017,1.0011,1.0007,1.0005,0,0,0,0,0,0,0,1.0925,1.0898,1.0644,1.0647,1.063,1.059,1.0562,1.0477,1.0322,1.0427,1.0414,1.0387,1.0179,1.0132,1.0115,0.9987,1.0017,1.0009,1.0003,0.9999,0.9832,0.9833,0,0,0,0,0,0,1.0957,1.091,1.0652,1.0636,1.0767,1.0585,1.0553,1.0499,1.0322,1.0294,1.0388,1.038,1.0148,1.0126,1.0105,1.0058,1.0007,0.9999,0.9993,0.9831,0.9832,0.9833,0,0,0,0,0,0,1.0965,1.0936,1.0662,1.077,1.0732,1.0581,1.0521,1.0494,1.0447,1.0293,1.0265,1.0368,1.0146,1.0118,1.0039,1.0046,0.9994,0.9986,0.9829,0.9831,0.9833,0.9963,0,0,0,0,0,0,1.0976,1.094,1.0926,1.0771,1.0727,1.0601,1.0521,1.049,1.0431,1.0419,1.0267,1.024,1.0143,1.0054,1.003,1.0033,0.9979,0.9828,0.983,0.9832,0.9957,0.9969,0.9979,0,0,0,0,0,1.0989,1.0971,1.0926,1.0895,1.0706,1.0601,1.0576,1.0465,1.0433,1.0418,1.032,1.0245,1.005,1.0047,1.0019,1.0019,0.9827,0.9829,0.9832,0.9953,0.9967,0.9979,0,0,0,0,0,0,1.1128,1.0949,1.0896,1.0828,1.0732,1.0575,1.0552,1.0483,1.0393,1.0385,1.025,1.0217,1.0152,1.0077,1.0077,0.9981,0.993,0.9927,1.0032,1.0044,1.0055,1.0073,0.9971,0,0,0,0,0,1.1152,1.1082,1.0928,1.0883,1.0837,1.0704,1.0654,1.0577,1.0471,1.0429,1.0325,1.0225,1.0141,1.0088,1.0003,0.9947,0.9912,0.9933,0.9944,0.9954,0.9952,0.992,0.9928,0.9842,0.9842,0.9841,0,0,1.1198,1.1091,1.1055,1.0908,1.0824,1.0756,1.067,1.06,1.0547,1.0418,1.0337,1.0259,1.0138,1.0072,1.0037,1.0007,0.9969,0.9957,0.9966,0.9959,0.9923,0.9932,0.9939,0.9843,0.9843,0.9843,0,0,1.1247,1.1159,1.1113,1.1032,1.0907,1.0819,1.0809,1.0663,1.0606,1.0524,1.0427,1.0363,1.0221,1.0139,1.008,1.0104,1.0033,1.008,1.0136,1.0106,1.0112,1.0118,1.0127,1.0132,1.008,1.008,1.008,0,1.132,1.1212,1.1097,1.1034,1.0973,1.0856,1.0808,1.0735,1.0589,1.0549,1.0519,1.0341,1.0251,1.0165,1.0172,1.0127,1.0111,1.0096,1.0121,1.0125,1.0128,1.0136,1.014,1.0086,1.0086,1.0085,1.0084,0,1.1309,1.1236,1.1213,1.1078,1.1014,1.0959,1.0837,1.0786,1.0717,1.0633,1.0553,1.0442,1.0333,1.0307,1.0237,1.0212,1.0198,1.0147,1.0092,1.0145,1.015,1.0152,1.0096,1.0094,1.0092,1.009,0,0,1.1434,1.1239,1.1233,1.1171,1.1027,1.0969,1.091,1.0805,1.0765,1.067,1.0617,1.0503,1.0455,1.0388,1.0308,1.0282,1.0311,1.0233,1.0228,1.0252,1.0278,1.0318,1.0323,1.0264,1.0264,1.0264,1.0289,0,1.1462,1.135,1.1247,1.1173,1.1105,1.0996,1.0944,1.0851,1.0773,1.0704,1.0616,1.0537,1.048,1.0439,1.0409,1.0314,1.0314,1.0311,1.0214,1.0212,1.0247,1.0325,1.0365,1.0394,1.029,1.029,1.029,0,1.1477,1.1389,1.1309,1.1176,1.1143,1.1099,1.0997,1.0933,1.0826,1.0771,1.0699,1.0616,1.055,1.0506,1.0413,1.0414,1.0368,1.0317,1.0315,1.03,1.0253,1.0313,1.04,1.0405,1.0292,1.0292,1.0292,0,1.1578,1.1439,1.1374,1.1325,1.1167,1.1139,1.1072,1.0964,1.0909,1.082,1.0783,1.0688,1.0635,1.0563,1.0458,1.0435,1.0377,1.0323,1.033,1.0333,1.0321,1.0323,1.0402,1.0293,1.0293,1.0293,1.0293,0,1.1619,1.1574,1.1418,1.1377,1.1325,1.1209,1.116,1.1083,1.0989,1.0933,1.0832,1.0782,1.0646,1.058,1.0497,1.0434,1.0411,1.0365,1.0343,1.0373,1.0379,1.034,1.0336,1.0294,1.0294,1.0294,1.0294,0,1.1721,1.1614,1.1536,1.1395,1.1359,1.1327,1.1206,1.1163,1.1081,1.1011,1.0988,1.0858,1.0775,1.0664,1.0545,1.049,1.0438,1.0404,1.0474,1.0461,1.0474,1.0475,1.053,1.0532,1.0425,1.0426,1.0427,0,1.1753,1.1717,1.1573,1.1529,1.1466,1.1396,1.134,1.1226,1.1172,1.1051,1.1023,1.0933,1.0855,1.0728,1.0622,1.0533,1.0496,1.0522,1.0481,1.0514,1.0496,1.05,1.0496,1.0531,1.0533,1.0534,1.0536,0,1.1822,1.1773,1.1697,1.1604,1.1542,1.1462,1.1378,1.1348,1.1216,1.1161,1.1076,1.1016,1.0898,1.081,1.0707,1.0637,1.0565,1.055,1.0546,1.0576,1.0619,1.0597,1.0501,1.0548,1.0547,1.0546,1.0545,1.0545,1.189,1.1854,1.1748,1.1668,1.1594,1.152,1.1474,1.1388,1.1315,1.121,1.1148,1.1066,1.0963,1.0818,1.0753,1.0688,1.0659,1.0654,1.0653,1.0653,1.0664,1.0631,1.0669,1.0668,1.0668,1.0667,1.0667,0,1.1954,1.1882,1.181,1.1698,1.1636,1.1576,1.1482,1.1434,1.1363,1.1275,1.1201,1.1105,1.1021,1.0912,1.082,1.0789,1.0754,1.0769,1.0769,1.0755,1.0694,1.0706,1.0799,1.0799,1.0799,1.0799,1.0799,1.0799,1.198,1.1917,1.1856,1.1755,1.1683,1.1603,1.1555,1.1486,1.1415,1.1314,1.1244,1.1174,1.1078,1.0979,1.09,1.087,1.0841,1.0866,1.0827,1.0771,1.0759,1.0748,1.0759,1.0861,1.0861,1.0893,1.0893,1.0893]}]]